Regional Weather Roundup
Issued by NWS

Home | Current Version | Previous Version | Graphics & Text | Print | Product List | Glossary On
Versions: 1 2 3 4 5 6 7 8 9 10 11 12 13 14 15 16 17 18 19 20 21 22 23 24 25 26 27 28 29 30 31 32 33 34 35 36 37 38 39 40 41 42 43 44 45 46 47 48 49 50
000
ASUS45 KSLC 122210
RWRUT

UTAH REGIONAL WEATHER ROUNDUP
NATIONAL WEATHER SERVICE SALT LAKE CITY UT
300 PM MST FRI FEB 12 2016

UTZ001>011-023>025-122300-

NORTHERN UTAH

CITY           SKY/WX    TMP DP  RH WIND       PRES   REMARKS
BRIGHAM CITY   CLOUDY    27  25  93 CALM      30.38F
HILL AFB       MOSUNNY   32  30  93 SW1       30.34F FOG
LOGAN          CLOUDY    23  22  96 CALM      30.35F FOG
OGDEN          CLOUDY    28  27  96 NW5       30.35F FOG     WCI  23
PROVO AIRPORT  FOG       25  23  93 CALM      30.35F VSB 1/8
SALT LAKE CITY LGT SNOW  31  27  85 VRB3      30.37F FOG
VERNAL         CLOUDY    31  22  69 E5        30.35F HAZE    WCI  26
WENDOVER       CLOUDY    30  27  86 S6        30.37F WCI  24
HEBER CITY     MOSUNNY   39  21  48 CALM      30.28F
WEST JORDAN    MOSUNNY   34  28  80 NW9       30.36F WCI  26

$$

UTZ012>022-026-027-122300-

SOUTHERN/CENTRAL UTAH

CITY           SKY/WX    TMP DP  RH WIND       PRES   REMARKS
BLANDING       SUNNY     48  26  42 CALM      30.42F
BRYCE CANYON   SUNNY     45  23  42 SE10      30.38F
CEDAR CITY     MOSUNNY   48  28  46 CALM      30.28F
DELTA          PTSUNNY   23  22  98 CALM      30.35F
HANKSVILLE     SUNNY     50  32  50 CALM      30.37F
MILFORD        MOSUNNY   25  18  74 N6        30.31F WCI  18
MOAB/CYNLANDS  SUNNY     45  32  60 NW8       30.34F
PRICE          SUNNY     45  25  45 S3        30.35F
ST GEORGE      PTCLDY    63  27  25 CALM      30.22F
KANAB          SUNNY     68  30  24 E9        30.30F

$$

REGIONAL REPORTS     COLORADO/ARIZONA

CITY           SKY/WX    TMP DP  RH WIND       PRES   REMARKS
CRAIG, CO      SUNNY     32  25  75 SW5       30.34F WCI  27
GRAND JUNCTION SUNNY     44  26  49 N6        30.34F
RIFLE          SUNNY     45  19  35 CALM      30.34F
MONTROSE       SUNNY     52  25  35 CALM      30.35F
CORTEZ         SUNNY     55  23  28 CALM      30.35F
PAGE, AZ       SUNNY     56  31  38 N6        30.30F
GRAND CANYON   SUNNY     68   8   9 NW5       30.33F
KINGMAN        SUNNY     75  22  13 N6        30.18F
FLAGSTAFF      SUNNY     61  10  13 SW3       30.35F

$$

REGIONAL REPORTS    NEVADA/IDAHO/WYOMING

CITY           SKY/WX    TMP DP  RH WIND       PRES   REMARKS
LAS VEGAS, NV  MOSUNNY   72  22  15 CALM      30.13F
ELY            PTSUNNY   44  25  47 CALM      30.30F
ELKO           MOSUNNY   36  22  56 SE5       30.32F WCI  32
POCATELLO, ID  CLOUDY    39  28  64 W6        30.28F WCI  35
BURLEY         MOSUNNY   52  34  50 N7        30.23F
EVANSTON, WY   CLOUDY    43  19  38 SW3       30.32F
ROCK SPRINGS   CLOUDY    48  17  29 W13       30.29F
KEMMERER       SUNNY     45  16  31 NW5       30.31F

$$



USA.gov is the U.S. government's official web portal to all federal, state and local government web resources and services.